This demonstration page uses our WeatherBlox Daily Observations layout. Learn more.

Hourly Observations for February 8, 2019

Temp ( °F °C ) Dew Point ( °F °C ) Humidity (%) Winds ( mph kmh ) Pressure ( in mb ) Visibility ( mi km ) Precip ( " mm )
12:15 am 00:15 Clear -5 -20.3 -10 -23.5 76 76 WNW 5 7 30.73 1041 10 16.0934 0 0
12:35 am 00:35 Clear -5 -20.4 -10 -23.5 76 76 W 7 11 30.74 1041 10 16.0934 0 0
12:55 am 00:55 Clear -3 -19.5 -9 -22.8 75 75 WNW 5 7 30.74 1041 10 16.0934 0 0
1:15 am 01:15 Clear -4 -20 -10 -23.5 74 74 WNW 6 9 30.75 1041 10 16.0934 0 0
1:35 am 01:35 Clear -5 -20.5 -10 -23.6 76 76 WNW 6 9 30.75 1041 10 16.0934 0 0
1:55 am 01:55 Clear -5 -20.5 -10 -23.6 76 76 NW 7 11 30.75 1041 10 16.0934 0 0
2:15 am 02:15 Clear -6 -20.9 -11 -23.7 78 78 WNW 3 6 30.77 1042 10 16.0934 0 0
2:35 am 02:35 Clear -5 -20.8 -11 -23.7 78 78 W 3 6 30.78 1042 10 16.0934 0 0
2:55 am 02:55 Clear -5 -20.3 -10 -23.1 78 78 W 6 9 30.78 1042 10 16.0934 0 0
3:55 am 03:55 Clear -5 -20.5 -10 -23.4 78 78 WNW 3 6 30.78 1042 10 16.0934 0 0
4:15 am 04:15 Clear -5 -20.5 -10 -23.5 77 77 W 3 6 30.78 1042 10 16.0934 0 0
4:35 am 04:35 Clear -4 -19.9 -9 -22.9 77 77 Calm 30.79 1043 10 16.0934 0 0
4:55 am 04:55 Clear -5 -20.5 -10 -23.5 77 77 Calm 30.78 1042 10 16.0934 0 0
5:15 am 05:15 Clear -8 -22 -12 -24.3 82 82 Calm 30.8 1043 10 16.0934 0 0
5:35 am 05:35 Clear -8 -22 -12 -24.5 80 80 Calm 30.8 1043 10 16.0934 0 0
5:55 am 05:55 Clear -8 -22.1 -13 -24.8 79 79 Calm 30.8 1043 10 16.0934 0 0
6:15 am 06:15 Clear -7 -21.7 -11 -23.9 82 82 Calm 30.8 1043 10 16.0934 0 0
6:35 am 06:35 Clear -8 -22.3 -13 -25 79 79 Calm 30.8 1043 10 16.0934 0 0
6:55 am 06:55 Clear -7 -21.8 -12 -24.3 80 80 Calm 30.79 1043 10 16.0934 0 0
7:15 am 07:15 Clear -5 -20.8 -9 -23 83 83 S 3 6 30.79 1043 10 16.0934 0 0
7:35 am 07:35 Clear -7 -21.9 -12 -24.4 80 80 Calm 30.8 1043 10 16.0934 0 0
7:55 am 07:55 Sunny -7 -21.7 -11 -23.9 82 82 Calm 30.8 1043 10 16.0934 0 0
8:15 am 08:15 Sunny -6 -20.9 -10 -23.1 83 83 Calm 30.8 1043 10 16.0934 0 0
8:35 am 08:35 Sunny -1 -18.2 -6 -21.2 77 77 SSW 3 6 30.79 1043 10 16.0934 0 0
8:55 am 08:55 Sunny 1 -17.2 -6 -20.9 73 73 Calm 30.79 1043 10 16.0934 0 0
9:15 am 09:15 Sunny 4 -15.8 -5 -20.5 67 67 S 5 7 30.78 1042 10 16.0934 0 0
9:35 am 09:35 Sunny 5 -15.1 -3 -19.6 69 69 S 9 15 30.78 1042 10 16.0934 0 0
9:55 am 09:55 Sunny 5 -14.8 -3 -19.3 69 69 S 8 13 30.79 1043 10 16.0934 0 0
10:15 am 10:15 Sunny 7 -14 -1 -18.5 69 69 S 7 11 30.78 1042 10 16.0934 0 0
10:35 am 10:35 Sunny 9 -12.8 0 -17.7 67 67 S 9 15 30.77 1042 10 16.0934 0 0
10:55 am 10:55 Sunny 11 -11.7 2 -16.7 67 67 SSW 12 19 30.77 1042 10 16.0934 0 0
11:15 am 11:15 Sunny 13 -10.6 4 -15.7 66 66 S 10 17 30.74 1041 10 16.0934 0 0
11:35 am 11:35 Sunny 14 -9.8 5 -14.8 67 67 S 8 13 30.74 1041 10 16.0934 0 0
11:55 am 11:55 Sunny 16 -8.9 7 -14 67 67 SSE 7 11 30.71 1040 10 16.0934 0 0
12:15 pm 12:15 Sunny 18 -8 7 -14.1 62 62 S 9 15 30.69 1039 10 16.0934 0 0
12:35 pm 12:35 Sunny 19 -7 8 -13.1 62 62 S 10 17 30.67 1038 10 16.0934 0 0
12:55 pm 12:55 Sunny 21 -6.2 9 -12.9 59 59 S 13 20 30.64 1038 10 16.0934 0 0
1:15 pm 13:15 Sunny 22 -5.7 9 -12.8 58 58 S 14 22 30.62 1037 10 16.0934 0 0
1:35 pm 13:35 Sunny 23 -5.2 10 -12.4 57 57 S 15 24 30.62 1037 10 16.0934 0 0
1:55 pm 13:55 Sunny 23 -5 10 -12.1 58 58 S 12 19 30.61 1036 10 16.0934 0 0
2:15 pm 14:15 Sunny 24 -4.7 11 -11.9 58 58 S 17 28 30.6 1036 10 16.0934 0 0
2:35 pm 14:35 Sunny 24 -4.2 10 -12 55 55 S 17 28 30.59 1036 10 16.0934 0 0
2:55 pm 14:55 Sunny 25 -4 10 -12.1 54 54 S 15 24 30.58 1035 10 16.0934 0 0
3:15 pm 15:15 Sunny 25 -3.7 11 -11.5 55 55 S 16 26 30.56 1035 10 16.0934 0 0
3:35 pm 15:35 Sunny 26 -3.6 11 -11.5 55 55 S 15 24 30.56 1035 10 16.0934 0 0
3:55 pm 15:55 Sunny 27 -3 11 -11.5 52 52 S 17 28 30.55 1034 10 16.0934 0 0
4:15 pm 16:15 Sunny 27 -2.7 11 -11.5 51 51 S 16 26 30.54 1034 10 16.0934 0 0
4:35 pm 16:35 Sunny 27 -2.9 11 -11.6 52 52 S 16 26 30.54 1034 10 16.0934 0 0
4:55 pm 16:55 Sunny 26 -3.3 11 -11.6 53 53 SSE 14 22 30.54 1034 10 16.0934 0 0
5:15 pm 17:15 Sunny 26 -3.2 11 -11.6 53 53 SSE 14 22 30.54 1034 10 16.0934 0 0
5:35 pm 17:35 Sunny 25 -4.1 11 -11.5 57 57 SSE 12 19 30.55 1034 10 16.0934 0 0
6:15 pm 18:15 Clear 21 -6.1 10 -12 63 63 SSE 14 22 30.57 1035 10 16.0934 0 0
6:35 pm 18:35 Clear 20 -6.4 10 -12.1 64 64 SSE 14 22 30.57 1035 10 16.0934 0 0
6:55 pm 18:55 Clear 20 -6.9 10 -12.1 67 67 SSE 15 24 30.58 1036 10 16.0934 0 0
7:15 pm 19:15 Clear 19 -7.1 10 -12 68 68 SE 13 20 30.6 1036 10 16.0934 0 0
7:35 pm 19:35 Clear 19 -7.2 11 -11.8 70 70 SE 15 24 30.6 1036 10 16.0934 0 0
7:55 pm 19:55 Clear 19 -7.3 11 -11.6 72 72 SE 15 24 30.6 1036 10 16.0934 0 0
8:15 pm 20:15 Clear 19 -7.5 11 -11.7 72 72 SE 15 24 30.6 1036 10 16.0934 0 0
8:35 pm 20:35 Clear 18 -7.6 11 -11.7 73 73 SE 13 20 30.61 1037 10 16.0934 0 0
8:55 pm 20:55 Clear 18 -8 11 -11.7 75 75 SE 15 24 30.62 1037 10 16.0934 0 0
9:15 pm 21:15 Clear 17 -8.2 11 -11.8 76 76 SE 17 28 30.62 1037 10 16.0934 0 0
9:35 pm 21:35 Clear 17 -8.3 10 -12 75 75 SE 17 28 30.61 1037 10 16.0934 0 0
9:55 pm 21:55 Clear 17 -8.4 10 -12.1 75 75 SE 17 28 30.61 1037 10 16.0934 0 0
10:15 pm 22:15 Clear 16 -8.7 10 -12.1 77 77 SE 18 30 30.6 1036 10 16.0934 0 0
10:35 pm 22:35 Clear 16 -9 10 -12.1 78 78 SE 18 30 30.6 1036 10 16.0934 0 0
10:55 pm 22:55 Clear 16 -8.8 10 -12 78 78 SSE 17 28 30.59 1036 10 16.0934 0 0
11:15 pm 23:15 Clear 17 -8.5 11 -11.8 77 77 SSE 21 33 30.58 1036 10 16.0934 0 0
11:35 pm 23:35 Clear 17 -8.5 11 -11.8 77 77 SSE 21 33 30.57 1035 10 16.0934 0 0
11:55 pm 23:55 Clear 17 -8.5 11 -11.7 78 78 SSE 22 35 30.56 1035 10 16.0934 0 0

Powered by AerisWeather